Regional Weather Roundup
Issued by NWS

Home | Current Version | Previous Version | Text Only | Print | Product List | Glossary Off
Versions: 1 2 3 4 5 6 7 8 9 10 11 12 13 14 15 16 17 18 19 20 21 22 23 24 25 26 27 28 29 30 31 32 33 34 35 36 37 38 39 40 41 42 43 44 45 46 47 48 49 50

000
ASUS43 KDTX 211410
RWRMI
MICHIGAN HOURLY REGIONAL WEATHER ROUNDUP
NATIONAL WEATHER SERVICE DETROIT/PONTIAC MI
1000 AM EDT SAT OCT 21 2017

NOTE: "FAIR" INDICATES FEW OR NO CLOUDS BELOW 12,000 FEET WITH NO
SIGNIFICANT WEATHER AND/OR OBSTRUCTION TO VISIBILITY.

MIZ047>049-052>055-059>063-066>070-074>076-081>083-211500-
SOUTHEAST LOWER MICHIGAN

CITY           SKY/WX    TMP DP  RH WIND       PRES   REMARKS
ADRIAN         SUNNY     55  51  86 S6        30.23R
ALMA           PTSUNNY   59  50  72 S10G16    30.16S
ANN ARBOR      SUNNY     57  53  86 S6        30.22S
BAD AXE        PTSUNNY   57  50  77 S8        30.19F
CARO           MOSUNNY   57  51  79 S3        30.18S
DETROIT CITY   MOSUNNY   60  54  80 S6        30.23S
DETROIT        PTSUNNY   57  53  86 S5        30.24R
FLINT          MOSUNNY   61  52  72 S7        30.19S
GROSSE ILE     CLOUDY    60  55  84 S6        30.23S
HILLSDALE      SUNNY     59  50  72 S7        30.21R
HOWELL         MOSUNNY   59  53  79 SE3       30.20S

CITY           SKY/WX    TMP DP  RH WIND       PRES   REMARKS
JACKSON        SUNNY     60  52  74 S6        30.20R
LAMBERTVILLE   MOSUNNY   62  52  69 S3        30.22F
LANSING        MOSUNNY   61  50  67 S9        30.19R
LAPEER         FAIR      58  53  81 S3        30.21R
MASON          CLOUDY    62  52  70 S7        30.20R
MONROE         CLOUDY    61  52  72 S3        30.22S
MT. CLEMENS    PTSUNNY   60  59  96 S3        30.21S
PONTIAC        PTSUNNY   58  52  80 SW6       30.21S
PORT HOPE        N/A     60  49  66 VRB3      30.16S
PORT HURON     PTSUNNY   59  54  82 S3        30.23S
TRI CITIES     PTSUNNY   59  52  77 S9        30.17S
MIDLAND        FAIR      57  51  79 S5        30.15S
TROY           CLOUDY    58  51  78 S5        30.24S
SAGINAW HB     MOSUNNY   59  52  77 S7        30.16S
$$
MIZ043>046-050>051-056>058-064>065-071>073-077>080-211500-
SOUTHWEST LOWER MICHIGAN

CITY           SKY/WX    TMP DP  RH WIND       PRES   REMARKS
BATTLE CREEK   MOSUNNY   61  52  72 S10       30.18S
BENTON HARBOR  CLOUDY    62  49  62 S7        30.13R
BIG RAPIDS     CLOUDY    55  50  82 S7        30.11F
COLDWATER      MOSUNNY   60  52  75 SE6       30.19S
FREMONT        FAIR      62  49  63 S9        30.11R
HOLLAND        MOSUNNY   60  51  72 S9        30.13R
GRAND RAPIDS   CLOUDY    61  52  72 SE9       30.14S
IONIA          FAIR      61  50  67 S9        30.15S
KALAMAZOO      MOSUNNY   60  49  66 S13       30.18R
LUDINGTON      PTSUNNY   58  50  75 SE6       30.06S
MARSHALL       MOSUNNY   60  51  72 S7        30.18S
MOUNT PLEASANT MOSUNNY   59  50  73 S5        30.14F
MUSKEGON       CLOUDY    65  49  56 S9        30.11R
SOUTH HAVEN    CLOUDY    62  49  63 S8        30.14R
$$
MIZ016>042-211500-
NORTHERN LOWER MICHIGAN

CITY           SKY/WX    TMP DP  RH WIND       PRES   REMARKS
ALPENA         CLOUDY    60  51  72 S7        30.11F
BEAVER ISLAND  MOSUNNY   63  51  63 S7G16     30.02S
BELLAIRE       CLOUDY    62  47  59 S7        30.07R
CADILLAC       CLOUDY    60  47  63 S9        30.10R
CHARLEVOIX     CLOUDY    62  48  61 S8G16     30.07S
FRANKFORT      MOSUNNY   62  51  66 S6        30.05R
GAYLORD        MOSUNNY   57  47  69 S8        30.10S
GRAYLING       CLOUDY    59  47  64 S6        30.11S
HARBOR SPRINGS CLOUDY    60  48  64 N3        30.06S
HOUGHTON LAKE  PTSUNNY   59  49  69 S9        30.13R
MANISTEE       CLOUDY    61  51  70 SE7       30.05S
OSCODA         CLOUDY    57  54  90 SW6       30.14S
PELLSTON       MOSUNNY   63  49  60 SE5       30.04F
ROGERS CITY    CLOUDY    60  50  69 SW12      30.09S
TRAVERSE CITY  PTSUNNY   64  49  57 SE6       30.04S
$$
MIZ007>008-015-211500-
EASTERN UPPER MICHIGAN

CITY           SKY/WX    TMP DP  RH WIND       PRES   REMARKS
KINROSS        CLOUDY    56  51  84 SE6       30.05S
MACKINAC ISLAN CLOUDY    61  49  62 SE7       30.03F
NEWBERRY       CLOUDY    60  54  80 S12G21    30.00S
S. S. MARIE    PTSUNNY   53  51  93 E5        30.05R
MUNISING         N/A     63  52  67 VRB5      29.93R
$$
MIZ004>006-011>014-085-211500-
CENTRAL UPPER MICHIGAN

CITY           SKY/WX    TMP DP  RH WIND       PRES   REMARKS
MANISTIQUE     CLOUDY    59  54  81 S9G17     29.98S
ESCANABA       CLOUDY    61  54  77 S14G22    29.95S
MENOMINEE      MOSUNNY   62  51  67 S9        29.97S
SAWYER-GWINN   SUNNY     55  48  76 S15       29.92S
$$
MIZ001>003-009>011-084-211500-
WESTERN UPPER MICHIGAN

CITY           SKY/WX    TMP DP  RH WIND       PRES   REMARKS
IRON MOUNTAIN  SUNNY     60  46  59 S12G18    29.91R
HOUGHTON       CLOUDY    63  45  51 S13       29.82R
COPPER HARBOR    N/A     64  47  53 SW10G18   29.80F
IRONWOOD       SUNNY     62  48  60 S13G25    29.78R
$$

ABBREVIATIONS USED IN REMARKS
   TC - TEMPERATURE IN CELSIUS
  WCI - WIND CHILL INDEX
   HX - HEAT INDEX
  VSB - VISIBILITY





USA.gov is the U.S. government's official web portal to all federal, state and local government web resources and services.